Location: Krasnoyarskiy Pitomnik
(51.1333°N, 71.6167°E)
Time: 08:21:30
(UTC+00:00)

Cosmos 724 - Pass Details

Date: 22 October 2021
Orbit: 857 x 937 km, 65.6° (Epoch: 05 December)

Event Time Altitude Azimuth Distance (km) Brightness Sun altitude
Rises 12:29:48 0° 319° (NW) 3,545 7.9 -4.4°
Reaches altitude 10° 12:32:21 10° 321° (NW) 2,589 7.1 -4.8°
Maximum altitude 12:38:22 79° 48° (NE) 909 4.3 -5.7°
Drops below altitude 10° 12:44:14 10° 136° (SE) 2,521 6.4 -6.6°
Sets 12:46:41 0° 137° (SE) 3,446 7.0 -7.0°
